CAPE
349 344 826 28 80 43 59 85 154 131 162 177 179 191 189 209 273 19 122 32 275 617 725 974 1882 1759 1720 1693 1636 1671 1562 1606 1677 1673 1774 1716 1660 1611 1501 1669 1883 1809 1848 1452 1703 1938 1754 1978 1943
401 709 449 7 33 52 73 92 151 176 133 106 72 85 90 103 291 113 51 269 451 739 753 917 1580 1864 1815 1588 1487 1317 1399 1533 1686 1824 1746 1683 1595 1534 1494 1743 1922 2073 1823 2217 2198 2171 2032 1874 1721
695 439 41 57 40 39 63 85 162 125 98 64 23 61 66 183 401 160 202 327 505 623 854 1061 1384 1665 1586 1584 1592 1424 1887 1865 1431 1239 1477 1860 1994 1784 1644 1680 2022 1640 2147 2023 2005 1667 1617 1673 1661
453 53 20 58 43 44 58 70 137 102 113 92 61 122 270 275 279 352 235 135 443 453 917 1161 1611 1404 1462 1549 1640 1597 1511 1614 1452 1504 1881 1858 1646 1658 1877 2003 1978 1936 1902 1727 1814 1940 1983 1938 1814
5 0 1 33 25 31 102 119 123 94 113 136 31 44 225 374 383 394 403 333 423 577 627 833 1490 1484 1458 1426 1410 1296 1492 1534 1469 1433 1838 2108 1885 1929 1658 1585 1455 1587 1766 2176 1923 1942 1626 1292 1330
27 0 0 0 5 23 103 106 88 89 90 91 61 135 233 380 509 528 501 506 459 392 451 451 910 1308 1311 1097 1316 1183 1048 1248 1478 1680 1769 1930 2090 2053 2053 2161 2231 2151 2001 1872 2013 1722 1228 983 1288
5 4 0 4 18 50 116 77 112 71 77 56 11 100 219 343 437 443 439 310 269 227 330 390 406 638 1125 1026 1218 1123 1305 1539 1592 1525 1270 1624 2105 2119 1998 2155 1885 1726 1734 1944 1882 1774 1519 1230 1475
109 0 4 23 1 86 99 78 84 100 58 47 17 73 136 246 383 351 295 135 39 165 262 305 382 436 547 796 1219 1272 1304 1167 954 888 1166 1412 1957 1842 2035 2135 2000 1786 1771 1726 1755 1773 1831 1943 1845
417 0 41 16 63 59 180 66 71 78 61 55 17 45 106 155 166 184 91 27 0 13 23 49 167 218 286 557 577 554 1235 1100 1142 1177 1387 1521 1372 1392 1552 1660 1648 1562 1467 1540 1722 1996 2283 2482 2454
48 0 18 40 85 46 80 179 20 26 89 63 65 74 125 137 104 53 12 0 0 1 18 12 11 10 134 433 336 355 627 407 241 202 488 584 632 731 833 1077 1691 1661 1562 1634 1940 2193 2160 2102 566
450 105 124 148 33 34 62 241 122 16 88 36 62 62 54 55 29 0 0 0 0 8 28 22 0 24 120 187 158 204 124 41 77 159 194 281 465 589 501 685 887 996 879 775 645 767 708 656 1230
296 322 105 252 89 127 158 155 43 56 66 33 48 39 30 21 21 0 0 0 0 2 14 39 31 43 44 99 81 72 81 91 182 140 211 217 220 233 274 395 437 352 352 347 709 841 834 891 956
461 457 58 99 121 117 59 157 97 51 68 63 47 35 34 4 10 0 0 0 0 7 8 15 56 31 40 70 13 25 194 315 350 407 446 321 287 370 287 201 240 303 413 550 654 1068 1137 1055 288
156 483 117 132 50 51 68 145 47 44 56 47 32 28 28 0 1 0 0 0 0 0 9 11 36 5 57 236 219 37 74 129 136 313 382 350 402 424 291 246 250 128 152 546 775 1077 882 729 586
85 133 185 92 2 20 45 85 24 50 44 25 32 23 26 0 16 12 11 8 0 0 0 0 0 9 57 117 346 303 331 318 224 314 363 586 510 325 164 256 164 214 513 712 1111 1177 943 166 400
103 146 12 47 7 37 23 0 11 24 33 17 1 10 22 19 27 9 46 42 0 5 0 0 0 2 31 137 149 242 249 328 385 295 342 471 421 323 211 155 165 335 745 1091 1166 703 317 922 325
9 55 34 15 70 178 64 0 10 2 5 24 1 0 17 14 10 0 38 69 56 29 3 0 0 13 89 144 197 192 312 420 382 339 317 316 277 175 31 287 477 596 805 1557 880 1240 1078 1359 1101
17 16 68 193 79 176 98 3 4 1 3 0 0 0 6 8 0 0 24 73 94 63 75 0 18 21 131 233 280 344 365 273 490 376 384 419 51 8 99 371 1130 889 551 992 1007 1382 1361 1459 1057
15 41 52 133 221 180 114 54 30 0 8 1 0 0 0 7 6 8 6 30 59 96 119 94 4 59 211 261 431 469 390 383 380 433 529 353 129 385 667 859 1355 812 866 888 562 1300 1242 1364 1071
46 55 96 253 247 255 99 84 22 4 0 6 8 17 1 14 27 39 41 79 67 117 113 153 87 61 280 386 307 246 248 305 368 384 476 412 387 408 727 901 1231 1203 801 652 929 1043 1242 1280 962
18 76 147 252 334 236 76 60 37 28 6 4 5 35 37 44 89 59 62 56 77 126 160 205 182 158 140 432 340 322 443 512 538 486 682 467 654 710 729 733 990 1065 1137 952 1120 1337 1503 955 1112
17 33 192 398 204 68 44 0 0 24 40 66 35 27 34 51 71 72 119 109 89 93 178 266 300 384 231 446 509 514 485 305 512 484 632 480 657 704 991 952 1212 1126 849 747 1222 1332 1289 1407 923
22 69 169 465 209 62 68 12 0 1 29 79 85 24 34 80 68 91 138 151 186 214 216 283 376 386 390 385 519 446 521 464 393 530 543 790 552 870 1011 914 1225 1399 1050 537 785 1624 1479 1275 1064
15 142 438 384 116 56 17 38 8 3 1 11 60 50 15 26 32 83 125 140 220 258 277 324 363 357 381 365 581 487 300 414 592 478 566 533 389 672 1140 1052 1071 1047 1095 507 856 1350 1545 1231 947
10 146 230 163 54 32 0 30 39 17 6 5 0 69 14 19 54 54 57 177 241 357 271 544 301 341 368 396 609 727 594 602 648 500 545 606 339 743 1090 1018 1125 1057 1097 1002 1238 1156 1184 1249 1075
0 0 2 4 13 0 22 43 32 99 135 46 0 2 33 44 38 64 86 158 236 265 455 521 708 333 414 309 432 751 703 698 680 613 514 530 654 598 1029 1032 1212 1206 962 1090 1084 1055 1073 1173 1069
0 0 0 0 0 10 0 5 47 173 133 94 46 58 101 134 56 54 77 154 213 258 281 296 575 682 753 490 413 509 751 821 762 625 617 450 210 548 600 740 1073 1108 1039 971 1016 977 1061 1007 1134
0 0 3 10 3 0 9 54 71 124 181 143 141 32 122 222 144 153 84 91 140 133 234 287 309 349 836 1037 967 736 649 626 722 703 643 367 169 426 673 721 981 1135 989 986 1034 806 1022 940 939
0 0 0 12 30 0 0 8 73 93 206 240 232 107 53 146 141 170 131 124 86 78 103 205 249 201 292 757 998 1007 952 874 781 698 619 523 537 572 578 442 545 938 1020 809 962 1064 988 1025 884
0 0 0 2 0 11 7 23 31 108 104 227 297 237 225 210 195 228 139 145 139 186 278 191 310 261 260 251 491 897 1066 1065 1021 986 768 741 519 585 639 530 396 573 672 705 540 686 1037 1196 815
CIN
-118 -42 -29 -201 -89 -42 -30 -38 -64 -47 -50 -47 -50 -105 -117 -78 -77 -17 -96 -69 -47 -16 -7 -2 0 0 0 0 0 0 0 0 0 0 0 0 0 -1 -4 0 0 0 0 0 0 0 0 0 0
-99 -22 -43 -18 -6 -17 -9 -19 -22 -66 -65 -56 -36 -61 -39 -59 -91 -135 -130 -38 -31 -12 -4 -7 -1 -1 0 0 0 -1 -3 0 0 0 0 0 -2 0 0 0 0 0 0 0 0 0 0 0 0
-64 -71 -81 -105 -25 -21 -27 -10 -66 -87 -61 -24 -23 -56 -101 -107 -69 -117 -84 -37 -15 -16 -3 -6 0 0 0 0 0 0 0 0 0 0 0 0 0 0 0 0 0 0 0 0 0 0 -1 0 0
-128 -252 -47 -27 -4 -25 -30 -9 -47 -117 -70 -16 -135 -122 -75 -64 -78 -54 -48 -73 -23 -32 -15 -8 0 0 0 0 0 0 0 0 0 0 0 0 0 -5 0 0 0 0 0 0 0 0 0 -1 -3
-272 0 -5 -11 -7 -35 -6 -25 -57 -97 -112 -128 -146 -139 -73 -35 -56 -53 -42 -40 -27 -10 -11 -11 -2 0 0 0 0 0 0 0 0 0 0 0 0 0 0 0 -1 -2 0 0 -1 0 -5 -10 -26
-207 0 0 0 -30 -13 -18 -23 -106 -138 -165 -156 -156 -125 -55 -33 -28 -19 -22 -16 -20 -21 -11 -11 -3 -5 0 0 0 0 0 0 0 0 0 0 0 -1 0 0 0 0 0 0 -1 -7 -15 -55 -38
-154 -154 0 -5 -42 -28 -52 -34 -11 -157 -141 -150 -45 -117 -42 -25 -41 -19 -9 -16 -22 -16 -11 -13 -12 -11 -1 0 0 0 0 0 0 0 -11 -5 0 0 0 0 -5 -3 -2 0 0 -2 -12 -22 -18
-67 0 -34 -50 -4 -35 -31 -6 -83 -114 -159 -152 -132 -118 -59 -29 -9 -12 -11 -26 -70 -19 -8 -13 -10 -7 -11 -1 -1 -3 -3 -1 -4 -10 -8 0 0 -1 -1 -2 -1 0 0 -1 -4 -7 -14 -11 -39
-62 0 -34 -36 -47 -15 -12 -30 -69 -140 -180 -106 -128 -156 -104 -72 -52 -34 -64 -74 0 -58 -43 -29 -31 -23 -14 -10 -13 -6 -5 -1 -3 -9 -3 -7 -16 -6 -7 -6 -6 -7 -16 -11 -8 -14 -14 -6 -16
-79 0 -59 -28 -69 -86 -45 -42 -39 -102 -129 -171 -179 -164 -107 -86 -75 -98 -130 0 0 -10 -69 -11 -30 -38 -19 -20 -25 -27 -23 -40 -60 -85 -44 -36 -41 -45 -65 -58 -23 -15 -31 -39 -48 -35 -9 -35 -264
-72 -130 -87 -34 -8 -96 -71 -44 -24 -88 -126 -149 -200 -161 -129 -106 -101 0 0 0 0 -9 -4 -9 0 -93 -33 -27 -34 -45 -58 -127 -148 -122 -117 -45 -37 -46 -70 -70 -93 -86 -113 -112 -19 -21 -3 -38 -158
-26 -22 -74 -14 -20 -65 -38 -66 -93 -85 -74 -159 -177 -156 -133 -124 -127 0 0 0 0 -10 -20 0 -1 -36 -44 -45 -59 -81 -147 -150 -137 -134 -104 -48 -52 -84 -111 -102 -142 -5 -6 -53 -70 -101 -102 -79 -108
-44 -2 -104 -64 -84 -65 -75 -40 -32 -70 -120 -150 -147 -153 -147 -74 -134 0 0 0 0 -12 -13 -2 0 -10 -66 -90 -81 -146 -100 -81 -79 -64 -71 -87 -82 -93 -123 -136 -41 -38 -32 -54 -58 -45 -82 -64 -75
-90 -37 -57 -69 -73 -14 -45 -37 -21 -86 -122 -135 -127 -167 -168 -22 -4 0 0 0 0 0 -22 -16 -1 -86 -81 -59 -81 -68 -86 -15 -36 -57 -64 -80 -75 -92 -98 -86 -62 -51 -30 -27 -27 -56 -42 -80 -97
-129 -103 -39 -57 -13 -34 -56 -35 -9 -83 -109 -129 -117 -155 -148 0 -14 -30 -22 -56 0 0 0 0 0 -112 -135 -67 -77 -111 -115 -86 -71 -40 -71 -70 -69 -120 -56 -70 -48 -43 -27 -24 -38 -79 -59 -291 -64
-150 -71 -74 -68 -82 -114 -47 -1 -45 -80 -90 -104 -21 -105 -100 -106 -26 -38 -17 -32 0 -19 0 0 -1 -12 -220 -153 -116 -106 -99 -62 -72 -58 -68 -79 -61 -78 -113 -92 -67 -22 -35 -48 -109 -84 -53 -40 -55
-61 -91 -118 -123 -109 -34 -61 0 -21 -39 -35 -110 -43 0 -104 -21 -34 0 -23 -20 -39 -35 -6 0 0 -53 -27 -148 -108 -51 -41 -37 -52 -76 -78 -98 -149 -59 -83 -23 -32 -50 -34 -42 -21 -26 -32 -27 -36
-27 -91 -134 -109 -148 -49 -70 -24 -43 -19 -18 -3 -3 0 -106 -12 0 0 -61 -38 -32 -48 -44 0 -62 -86 -90 -93 -52 -75 -41 -75 -47 -60 -105 -66 -106 -142 -59 -20 -47 -83 -16 -41 -38 -50 -51 -62 -75
-11 -26 -109 -180 -145 -66 -70 -61 -39 0 -49 -23 0 0 0 -25 -28 -19 -39 -59 -49 -46 -54 -17 -23 -81 -68 -85 -68 -54 -34 -18 -34 -32 -52 -43 -75 -26 -26 -32 -34 -53 -66 -61 -69 -81 -67 -38 -32
-170 -134 -69 -157 -154 -65 -52 -83 -68 -57 0 -41 -95 -102 -15 -28 -26 -40 -110 -103 -151 -57 -58 -68 -26 -29 -73 -78 -72 -50 -29 -23 -17 -41 -49 -48 -20 -25 -47 -70 -41 -39 -41 -55 -44 -70 -54 -46 -51
-179 -130 -100 -100 -135 -89 -90 -105 -107 -74 -102 -53 -21 -53 -55 -45 -29 -181 -110 -58 -52 -114 -52 -67 -82 -31 -51 -90 -52 -95 -65 -58 -65 -65 -40 -106 -65 -29 -55 -66 -44 -42 -52 -56 -59 -47 -45 -53 -43
-171 -199 -96 -90 -109 -62 -183 0 0 -131 -154 -204 -93 -56 -75 -57 -29 -46 -169 -141 -99 -97 -97 -97 -61 -27 -31 -90 -42 -65 -27 -40 -28 -27 -42 -52 -32 -27 -40 -55 -21 -37 -34 -62 -44 -54 -57 -59 -44
-194 -203 -120 -66 -55 -56 -40 -112 -1 -30 -166 -174 -212 -109 -93 -108 -63 -58 -139 -133 -214 -223 -171 -40 -64 -35 -27 -108 -44 -61 -30 -23 -15 -21 -18 -16 -22 -80 -30 -19 -36 -24 -24 -76 -65 -21 -42 -39 -34
-171 -169 -109 -50 -36 -41 -48 -134 -125 -52 -14 -76 -150 -134 -142 -88 -96 -68 -93 -108 -82 -180 -225 -76 -83 -14 -39 -109 -54 -36 -64 -65 -23 -16 -25 -23 -18 -129 -37 -46 -19 -16 -11 -87 -88 -26 -25 -30 -53
-123 -75 -89 -42 -40 -52 0 -145 -142 -97 -137 -48 0 -134 -120 -59 -101 -40 -60 -209 -197 -157 -187 -195 -137 -29 -19 -100 -71 -64 -66 -63 -51 -32 -52 -35 -105 -127 -27 -24 -19 -9 -12 -47 -20 -32 -33 -21 -33
0 0 -6 -11 -89 0 -78 -131 -93 -191 -140 -53 0 -87 -68 -42 -98 -68 -37 -208 -92 -138 -102 -109 -151 -98 -30 -33 -63 -96 -73 -62 -53 -30 -18 -27 -33 -66 -48 -32 -24 -7 -8 -27 -25 -27 -24 -29 -24
0 0 0 0 0 -44 0 -175 -116 -223 -119 -220 -322 -253 -130 -70 -142 -129 -74 -277 -269 -136 -113 -112 -83 -130 -109 -116 -105 -10 -72 -54 -39 -40 -25 -26 -30 -51 -29 -66 -54 -23 -8 -57 -30 -31 -19 -32 -19
0 0 -14 -8 -3 0 -73 -87 -69 -60 -138 -76 -78 -113 -143 -59 -50 -33 -93 -196 -238 -267 -257 -237 -60 -214 -144 -85 -55 -13 -10 -98 -79 -53 -44 -50 -51 -78 -44 -46 -69 -54 -38 -55 -32 -41 -25 -22 -20
0 0 0 -3 -1 0 0 -33 -70 -47 -57 -80 -110 -114 -56 -68 -47 -65 -271 -286 -68 -146 -271 -197 -123 -79 -143 -195 -133 -104 -39 -50 -52 -68 -65 -50 -80 -58 -37 -59 -87 -51 -43 -47 -40 -25 -29 -22 -21
0 0 0 -1 0 -88 -32 -67 -73 -42 -52 -73 -62 -50 -33 -20 -40 -12 -15 -24 -229 -305 -253 -271 -225 -197 -186 -266 -172 -143 -112 -75 -54 -40 -39 -33 -66 -85 -59 -52 -81 -48 -40 -26 -35 -21 -44 -16 -30
Wind_Speed
4 7 2 nan nan nan nan nan 3 2 4 5 6 7 7 8 2 nan 7 nan 9 9 5 11 18 16 17 16 14 13 12 10 11 9 11 12 13 13 13 13 14 12 9 10 8 3 5 5 6
4 6 9 nan nan nan nan nan 3 2 7 10 nan nan nan 7 7 8 nan 5 9 9 7 12 16 17 16 14 15 16 16 12 8 9 10 14 12 13 14 12 13 11 8 11 6 5 5 5 5
4 10 nan nan nan nan nan nan 3 9 nan nan nan nan nan 8 7 7 5 5 7 7 9 9 16 14 14 14 16 15 14 11 12 12 14 17 15 16 20 15 10 9 10 7 4 7 5 5 2
7 nan nan nan nan nan nan nan 7 12 7 nan nan 11 9 7 6 5 11 8 4 7 5 7 15 14 13 15 15 14 15 15 14 17 17 20 18 20 19 17 11 7 8 5 6 7 7 6 3
nan nan nan nan nan nan 6 4 6 nan 7 9 nan nan 6 8 12 11 9 8 5 6 3 20 15 13 13 16 17 16 18 19 20 22 20 19 19 20 20 19 5 8 6 4 5 6 6 5 3
nan nan nan nan nan nan 7 4 nan nan nan nan nan 6 5 7 10 9 9 8 5 4 4 14 9 12 16 14 15 17 19 19 20 22 20 18 18 15 18 17 6 7 4 4 4 2 3 4 6
nan nan nan nan nan nan 2 nan 3 nan nan nan nan 4 4 4 5 8 10 8 7 4 3 3 16 6 7 9 11 16 16 17 16 20 21 16 18 16 16 14 6 6 4 5 4 5 4 6 7
11 nan nan nan nan nan nan nan nan 8 nan nan nan nan 4 3 6 8 9 10 nan 6 5 7 10 11 11 10 9 10 14 16 18 19 22 19 21 14 12 12 7 4 6 4 4 6 7 11 10
11 nan nan nan nan nan 4 nan nan nan nan nan nan nan 9 9 8 5 nan nan nan nan nan nan 11 13 13 14 9 11 13 19 21 18 21 16 13 13 14 6 6 6 5 5 8 8 10 7 9
nan nan nan nan nan nan nan 5 nan nan nan nan nan nan 14 10 8 nan nan nan nan nan nan nan nan nan 14 14 18 16 13 16 12 12 3 6 14 9 7 11 13 9 7 7 9 11 5 6 7
10 20 11 5 nan nan nan 9 1 nan nan nan nan nan nan nan nan nan nan nan nan nan nan nan nan nan 17 17 18 17 16 nan nan 8 9 18 6 9 14 11 10 8 7 4 8 9 11 14 13
15 17 13 10 nan 8 10 10 nan nan nan nan nan nan nan nan nan nan nan nan nan nan nan nan nan nan nan nan nan nan nan nan 7 15 6 7 11 14 12 9 9 9 3 4 9 15 12 10 17
14 22 nan nan 18 7 nan 9 nan nan nan nan nan nan nan nan nan nan nan nan nan nan nan nan nan nan nan nan nan nan 17 13 16 17 17 14 13 13 11 10 9 6 3 6 12 9 11 7 9
11 20 19 9 nan nan nan 5 nan nan nan nan nan nan nan nan nan nan nan nan nan nan nan nan nan nan nan 19 14 nan nan 13 20 17 19 16 14 11 10 6 6 5 5 8 11 7 5 5 8
nan 14 23 nan nan nan nan nan nan nan nan nan nan nan nan nan nan nan nan nan nan nan nan nan nan nan nan 14 10 13 14 22 21 20 18 16 13 10 8 6 6 5 4 8 9 3 10 4 9
8 12 nan nan nan nan nan nan nan nan nan nan nan nan nan nan nan nan nan nan nan nan nan nan nan nan nan 18 17 15 16 18 14 15 13 13 11 12 8 6 7 5 7 5 7 8 7 9 10
nan nan nan nan nan 7 nan nan nan nan nan nan nan nan nan nan nan nan nan nan nan nan nan nan nan nan nan 18 18 20 21 20 17 16 14 13 11 7 nan 5 6 5 4 4 1 7 9 11 6
nan nan nan 17 nan 17 nan nan nan nan nan nan nan nan nan nan nan nan nan nan nan nan nan nan nan nan 6 7 16 18 18 17 13 13 13 12 nan nan nan 9 8 7 7 8 6 8 8 9 7
nan nan nan 11 13 11 13 nan nan nan nan nan nan nan nan nan nan nan nan nan nan nan 10 nan nan nan 3 8 8 15 14 15 16 10 10 9 10 7 5 10 10 7 6 5 9 6 8 6 5
nan nan nan 9 9 9 nan nan nan nan nan nan nan nan nan nan nan nan nan nan nan 15 10 3 nan nan 3 6 9 10 13 11 15 14 10 10 7 9 8 7 7 4 4 3 2 5 4 4 2
nan nan 8 10 7 4 nan nan nan nan nan nan nan nan nan nan nan nan nan nan nan 12 12 5 2 4 6 8 13 14 17 19 17 17 15 15 10 6 6 6 5 2 2 4 6 5 3 2 2
nan nan 6 7 6 nan nan nan nan nan nan nan nan nan nan nan nan nan 3 2 nan nan 9 9 0 5 7 8 14 13 16 16 17 15 15 16 12 10 7 5 4 3 3 6 2 3 2 0 3
nan nan 13 7 7 nan nan nan nan nan nan nan nan nan nan nan nan nan 3 2 2 3 5 6 5 4 4 7 10 15 17 17 17 18 17 15 16 13 9 6 6 8 8 4 3 2 2 1 1
nan 17 20 10 5 nan nan nan nan nan nan nan nan nan nan nan nan nan 9 8 11 6 4 4 3 4 6 6 9 10 12 14 18 18 17 15 16 17 13 10 9 9 7 3 3 3 5 3 5
nan 12 16 12 nan nan nan nan nan nan nan nan nan nan nan nan nan nan nan 11 12 11 8 8 5 1 5 8 10 11 12 14 12 11 14 17 20 18 13 12 9 6 4 3 2 1 2 2 1
nan nan nan nan nan nan nan nan nan nan 9 nan nan nan nan nan nan nan nan 7 7 13 12 10 7 5 5 9 11 12 11 16 15 14 14 18 18 18 17 12 10 9 7 6 6 6 5 3 2
nan nan nan nan nan nan nan nan nan 7 11 nan nan nan 12 8 nan nan nan 11 9 12 11 13 13 10 9 6 12 14 17 17 19 17 16 18 18 19 17 14 11 11 10 10 10 9 8 6 3
nan nan nan nan nan nan nan nan nan 3 5 11 12 nan 12 8 7 8 nan nan 10 4 8 12 21 16 13 10 8 12 14 18 18 17 16 18 20 20 18 15 16 13 10 10 11 13 11 10 8
nan nan nan nan nan nan nan nan nan nan 8 9 10 11 nan 7 7 7 9 8 nan nan 8 12 18 16 13 12 11 11 14 15 20 17 14 18 20 20 18 18 18 17 15 13 11 11 13 11 9
nan nan nan nan nan nan nan nan nan 15 16 15 16 18 8 6 5 5 5 7 4 6 12 11 12 17 15 19 17 15 16 16 18 17 20 21 20 21 19 18 18 14 17 14 11 11 11 9 8
Wind_Direction
288 262 248 nan nan nan nan nan 16 269 245 149 226 268 274 190 217 nan 272 nan 271 268 301 254 262 269 278 287 304 298 294 306 300 294 287 289 270 276 287 300 298 286 286 270 270 300 315 328 347
230 255 230 nan nan nan nan nan 9 46 309 304 nan nan nan 217 210 272 nan 323 305 280 269 287 249 258 274 297 297 298 310 301 306 297 308 308 283 285 282 282 287 284 286 271 287 298 309 336 348
266 229 nan nan nan nan nan nan 297 287 nan nan nan nan nan 230 251 296 274 296 274 292 256 234 239 238 271 281 295 303 311 290 292 296 302 313 300 290 301 262 271 277 268 270 282 274 294 286 287
224 nan nan nan nan nan nan nan 321 326 267 nan nan 248 230 214 241 283 295 295 283 10 237 215 237 232 252 265 283 290 295 299 295 298 302 309 296 309 313 270 255 271 264 269 285 292 288 271 312
nan nan nan nan nan nan 164 294 335 nan 250 226 nan nan 234 212 260 276 302 287 311 353 351 211 246 228 247 260 277 282 286 290 294 295 297 293 310 294 293 262 267 256 263 289 277 269 273 306 3
nan nan nan nan nan nan 111 51 nan nan nan nan nan 279 253 260 268 264 264 261 252 273 311 193 188 223 258 279 286 284 284 283 294 297 296 286 287 292 281 261 251 242 262 238 233 268 336 358 9
nan nan nan nan nan nan 279 nan 316 nan nan nan nan 288 293 277 268 253 244 250 244 247 262 167 189 194 271 285 295 305 274 280 285 293 298 286 278 284 273 246 220 218 259 223 197 142 111 74 22
284 nan nan nan nan nan nan nan nan 280 nan nan nan nan 360 341 286 245 227 238 nan 238 229 224 204 207 215 234 294 286 283 275 282 300 296 284 267 264 240 233 175 224 206 206 114 100 93 73 43
327 nan nan nan nan nan 234 nan nan nan nan nan nan nan 323 316 284 252 nan nan nan nan nan nan 222 210 210 217 223 256 277 281 284 289 294 265 209 192 207 177 162 195 191 147 115 98 91 123 138
nan nan nan nan nan nan nan 149 nan nan nan nan nan nan 308 317 320 nan nan nan nan nan nan nan nan nan 223 224 222 224 239 240 249 254 193 189 144 157 203 152 168 183 160 121 92 86 110 44 89
335 328 314 261 nan nan nan 147 41 nan nan nan nan nan nan nan nan nan nan nan nan nan nan nan nan nan 224 211 220 209 220 nan nan 162 56 136 149 149 138 155 179 189 147 137 93 72 21 16 28
337 326 312 256 nan 206 143 151 nan nan nan nan nan nan nan nan nan nan nan nan nan nan nan nan nan nan nan nan nan nan nan nan 183 147 92 151 148 132 140 173 187 185 123 95 68 47 48 31 39
7 359 nan nan 242 211 nan 144 nan nan nan nan nan nan nan nan nan nan nan nan nan nan nan nan nan nan nan nan nan nan 210 192 177 171 128 143 144 148 161 178 197 153 124 57 67 63 51 60 64
19 349 344 270 nan nan nan 145 nan nan nan nan nan nan nan nan nan nan nan nan nan nan nan nan nan nan nan 200 198 nan nan 175 186 153 148 150 153 152 165 185 175 155 46 46 69 52 30 69 90
nan 345 347 nan nan nan nan nan nan nan nan nan nan nan nan nan nan nan nan nan nan nan nan nan nan nan nan 179 179 165 172 186 163 146 160 155 154 159 151 188 148 130 99 75 69 53 53 63 85
36 17 nan nan nan nan nan nan nan nan nan nan nan nan nan nan nan nan nan nan nan nan nan nan nan nan nan 110 115 146 150 155 124 142 144 142 158 159 159 161 152 111 93 101 51 75 53 80 90
nan nan nan nan nan 348 nan nan nan nan nan nan nan nan nan nan nan nan nan nan nan nan nan nan nan nan nan 126 130 128 132 130 141 153 148 140 161 174 nan 140 130 115 138 114 125 85 52 72 94
nan nan nan 25 nan 18 nan nan nan nan nan nan nan nan nan nan nan nan nan nan nan nan nan nan nan nan 89 116 132 137 146 142 159 162 147 149 nan nan nan 152 157 172 191 151 114 100 90 63 90
nan nan nan 40 39 43 44 nan nan nan nan nan nan nan nan nan nan nan nan nan nan nan 357 nan nan nan 238 160 167 154 151 159 158 164 145 152 165 169 158 165 170 181 205 152 125 138 130 137 125
nan nan nan 73 16 21 nan nan nan nan nan nan nan nan nan nan nan nan nan nan nan 22 18 331 nan nan 183 193 180 196 170 177 168 178 180 172 205 163 139 178 165 181 200 170 171 166 146 84 6
nan nan 30 40 335 84 nan nan nan nan nan nan nan nan nan nan nan nan nan nan nan 13 12 360 181 183 186 181 196 197 193 187 188 185 194 188 191 176 147 154 136 205 186 160 213 154 132 76 124
nan nan 12 294 235 nan nan nan nan nan nan nan nan nan nan nan nan nan 184 269 nan nan 13 339 335 170 202 215 193 206 203 193 185 182 201 188 179 180 161 141 147 181 213 163 148 142 148 297 167
nan nan 308 276 241 nan nan nan nan nan nan nan nan nan nan nan nan nan 257 33 355 50 27 336 306 283 216 232 205 196 200 201 193 184 182 176 181 175 167 171 176 181 195 189 109 241 214 185 202
nan 244 246 244 245 nan nan nan nan nan nan nan nan nan nan nan nan nan 237 228 215 228 239 282 283 240 253 222 218 205 200 196 195 186 166 173 176 181 175 181 189 186 189 141 119 212 218 218 171
nan 251 239 236 nan nan nan nan nan nan nan nan nan nan nan nan nan nan nan 259 261 237 251 269 271 166 231 236 221 218 199 204 198 190 178 175 179 180 179 190 184 196 194 213 171 192 224 266 184
nan nan nan nan nan nan nan nan nan nan 128 nan nan nan nan nan nan nan nan 277 275 195 212 258 283 261 225 231 224 221 218 207 201 205 189 182 177 180 189 193 188 196 191 233 224 229 256 254 138
nan nan nan nan nan nan nan nan nan 231 223 nan nan nan 3 327 nan nan nan 271 292 232 248 250 237 235 255 234 235 234 230 217 213 195 202 202 201 202 189 196 207 207 203 207 228 228 216 241 214
nan nan nan nan nan nan nan nan nan 217 256 320 312 nan 344 327 308 283 nan nan 343 280 291 289 236 245 236 231 238 248 249 242 220 206 198 205 208 210 208 203 214 213 215 217 221 212 195 211 209
nan nan nan nan nan nan nan nan nan nan 307 311 304 314 nan 316 349 323 318 338 nan nan 293 301 228 240 241 247 237 249 249 246 251 229 214 194 209 219 214 213 219 217 213 211 218 216 198 197 211
nan nan nan nan nan nan nan nan nan 289 313 324 278 335 344 338 354 305 323 320 318 306 283 301 260 234 242 269 257 248 244 241 243 243 230 225 209 215 221 224 228 237 235 220 223 204 217 210 198